User: anonymous   Login
Location: Cran-Gévrier
(45.9039°N, 6.1012°E)
Time: 01:11:45
(UTC+00:00)
Language:

Cosmos 841 Rocket - Orbit

View from above orbital plane
View from above orbital plane
View from above satellite
View from above satellite

Ground track
Ground track

The orbit data is extracted from the following two-line orbital elements,

1 09023U 76069B   24106.56134468  .00000475  00000-0  15791-3 0  9994
2 09023  74.0432 171.7961 0016083  79.6208 280.6759 14.40324497503517
Epoch (UTC): 15 April 2024 13:28:20
Eccentricity: 0.0016083
inclination: 74.0432°
perigee height: 746 km
apogee height: 769 km
right ascension of ascending node: 171.7961°
argument of perigee: 79.6208°
revolutions per day: 14.40324497
mean anomaly at epoch: 280.6759°
orbit number at epoch: 50351

The dashed part of the orbit path shows where the satellite is in the earth's shadow,  

DLR